Weather History for KOMK - February, 2014

Change the Weather History Date:

Tuesday, February 25, 2014

  Actual Average Record
Temperature  
Mean Temperature 25 °F 34 °F  
Max Temperature 30 °F 44 °F 56 °F (1958)
Min Temperature 19 °F 25 °F -1 °F (1936)
Degree Days  
Heating Degree Days 40 31  
Month to date heating degree days 936 838  
Since 1 July heating degree days 4891 4771  
Cooling Degree Days 0 0  
Month to date cooling degree days 0 0  
Year to date cooling degree days 0 0  
Moisture  
Dew Point 14 °F    
Average Humidity 66    
Maximum Humidity 74    
Minimum Humidity 58    
Precipitation  
Precipitation 0.00 in 0.04 in 0.39 in (1958)
Month to date precipitation 1.50 1.16  
Year to date precipitation 1.82 2.85  
Sea Level Pressure  
Sea Level Pressure 30.42 in    
Wind  
Wind Speed 13 mph (North)    
Max Wind Speed 18 mph    
Max Gust Speed 24 mph    
Visibility 10 miles    
Events      
T = Trace of Precipitation, MM = Missing Value Source: NWS Daily Summary

Daily Weather History Graph

Daily Weather History Graph

Search for Another Location

Airport or City:

Trip Planner

Search our weather history database for the weather conditions in past years. The results will help you decide how hot, cold, wet, or windy it might be!

Date:

Astronomy

Feb. 25, 2014 Rise Set
Actual Time 6:47 AM PST 5:35 PM PST
Civil Twilight 6:15 AM PST 6:07 PM PST
Nautical Twilight 5:39 AM PST 6:43 PM PST
Astronomical Twilight 5:02 AM PST 7:20 PM PST
Moon 3:59 AM PST (2/25) 1:34 PM PST (2/25)
Length of Visible Light 11h 52m
Length of Day
10h 48m
Waning Crescent, 17% of the Moon is Illuminated
Feb 25
Waning Crescent
Mar 1
New
Mar 8
First Quarter
Mar 16
Full
Mar 23
Last Quarter

Hourly Weather History & Observations

Time (PST) Temp. Windchill Dew Point Humidity Pressure Visibility Wind Dir Wind Speed Gust Speed Precip Events Conditions
12:53 AM 24.1 °F 11.5 °F 17.1 °F 75% 30.38 in 10.0 mi North 15.0 mph - N/A   Overcast
1:53 AM 23.0 °F 11.1 °F 15.1 °F 72% 30.40 in 10.0 mi NNW 12.7 mph - N/A   Overcast
2:53 AM 21.9 °F 9.2 °F 12.9 °F 68% 30.41 in 10.0 mi NW 13.8 mph - N/A   Partly Cloudy
3:53 AM 21.0 °F 7.1 °F 12.9 °F 71% 30.43 in 10.0 mi NNW 16.1 mph - N/A   Partly Cloudy
4:53 AM 21.0 °F 6.6 °F 12.0 °F 68% 30.45 in 10.0 mi North 17.3 mph - N/A   Clear
5:53 AM 19.9 °F 7.9 °F 10.9 °F 68% 30.46 in 10.0 mi North 11.5 mph - N/A   Clear
6:53 AM 19.0 °F 4.5 °F 10.0 °F 68% 30.47 in 10.0 mi NNW 16.1 mph - N/A   Clear
7:53 AM 19.9 °F 6.7 °F 10.9 °F 68% 30.49 in 10.0 mi North 13.8 mph - N/A   Overcast
8:53 AM 21.0 °F 8.1 °F 12.0 °F 68% 30.50 in 10.0 mi North 13.8 mph - N/A   Clear
9:53 AM 23.0 °F 10.6 °F 12.9 °F 65% 30.50 in 10.0 mi North 13.8 mph - N/A   Clear
10:53 AM 25.0 °F 12.6 °F 14.0 °F 63% 30.50 in 10.0 mi North 15.0 mph 20.7 mph N/A   Clear
11:53 AM 27.0 °F 15.2 °F 15.1 °F 61% 30.48 in 10.0 mi North 15.0 mph - N/A   Clear
12:53 PM 28.0 °F 16.1 °F 15.1 °F 58% 30.45 in 10.0 mi North 16.1 mph - N/A   Clear
1:53 PM 28.9 °F 18.2 °F 16.0 °F 58% 30.42 in 10.0 mi North 13.8 mph 21.9 mph N/A   Clear
2:53 PM 28.9 °F 17.3 °F 16.0 °F 58% 30.41 in 10.0 mi North 16.1 mph - N/A   Clear
3:53 PM 28.9 °F 19.8 °F 17.1 °F 61% 30.39 in 10.0 mi North 10.4 mph - N/A   Clear
4:53 PM 26.1 °F 17.6 °F 16.0 °F 66% 30.38 in 10.0 mi North 8.1 mph - N/A   Clear
5:53 PM 21.9 °F 12.5 °F 14.0 °F 72% 30.38 in 10.0 mi North 8.1 mph - N/A   Clear
6:53 PM 23.0 °F 14.7 °F 14.0 °F 68% 30.38 in 10.0 mi North 6.9 mph - N/A   Overcast
7:53 PM 24.1 °F 13.7 °F 15.1 °F 69% 30.38 in 10.0 mi NNW 10.4 mph - N/A   Overcast
8:53 PM 24.1 °F 13.7 °F 14.0 °F 65% 30.38 in 10.0 mi North 10.4 mph - N/A   Overcast
9:53 PM 23.0 °F 11.7 °F 15.1 °F 72% 30.38 in 10.0 mi North 11.5 mph - N/A   Overcast
10:53 PM 23.0 °F 10.6 °F 14.0 °F 68% 30.36 in 10.0 mi North 13.8 mph - N/A   Overcast
11:53 PM 19.9 °F 8.6 °F 12.9 °F 74% 30.35 in 10.0 mi North 10.4 mph - N/A   Overcast